Location: Bern�tre
(50.1974°N, 2.0915°E)
Time: 08:39:43
(UTC+00:00)

Meteor 1-22 Rocket - Pass Details

Date: 18 September 2020
Orbit: 786 x 941 km, 81.2° (Epoch: 27 October)

Event Time Altitude Azimuth Distance (km) Brightness Sun altitude
Exits shadow 20:43:05 56° 172° (S) 1,067 4.4 -25.4°
Maximum altitude 20:44:23 79° 100° (E) 930 4.2 -25.5°
Drops below altitude 10° 20:50:27 10° 14° (NNE) 2,644 7.0 -26.3°
Sets 20:52:58 0° 14° (NNE) 3,604 7.8 -26.6°
